Precipitable_Water
0.28 0.19 0.18 0.17 0.19 0.22 0.23 0.23 0.23 0.23 0.21 0.20 0.19 0.18 0.16 0.15 0.13 0.15 0.16 0.18 0.20 0.18 0.17 0.18 0.19 0.18 0.18 0.19 0.20 0.21 0.32 0.39 0.42 0.45 0.49 0.57 0.65 0.66 0.65 0.63 0.63 0.63 0.69 0.95 1.00 1.02 1.05 1.11 1.10 1.07 1.09 1.15 1.19 1.20 1.21 1.23 1.26 1.28 1.30 1.31 1.30 1.37 1.41 1.38 1.33 1.30 1.28 1.27 1.30 1.32 1.30 1.27 1.32 1.31 1.30 1.30 1.32 1.33 1.35 1.37 1.36 1.32 1.25 1.20 1.17 1.17
0.26 0.19 0.17 0.20 0.23 0.24 0.24 0.25 0.24 0.22 0.21 0.20 0.19 0.18 0.17 0.16 0.13 0.15 0.16 0.18 0.21 0.18 0.17 0.19 0.19 0.19 0.19 0.20 0.21 0.22 0.27 0.30 0.33 0.38 0.44 0.52 0.63 0.63 0.59 0.60 0.61 0.67 0.83 0.91 0.93 1.00 1.04 1.09 1.13 1.10 1.08 1.12 1.10 1.13 1.17 1.18 1.23 1.27 1.31 1.31 1.33 1.36 1.37 1.37 1.34 1.30 1.29 1.30 1.30 1.28 1.28 1.29 1.28 1.25 1.23 1.23 1.29 1.32 1.35 1.34 1.27 1.21 1.16 1.13 1.11 1.11
0.19 0.16 0.19 0.23 0.26 0.26 0.26 0.26 0.25 0.22 0.20 0.20 0.18 0.18 0.16 0.15 0.17 0.16 0.16 0.18 0.21 0.20 0.17 0.20 0.19 0.19 0.20 0.21 0.22 0.21 0.23 0.26 0.29 0.31 0.35 0.48 0.58 0.58 0.58 0.60 0.66 0.67 0.71 0.79 0.87 0.94 0.99 1.06 1.11 1.11 1.09 1.11 1.15 1.16 1.16 1.20 1.23 1.27 1.29 1.32 1.34 1.37 1.38 1.38 1.37 1.33 1.29 1.32 1.37 1.35 1.34 1.31 1.25 1.32 1.33 1.30 1.31 1.31 1.25 1.24 1.23 1.19 1.17 1.15 1.13 1.14
0.16 0.18 0.22 0.25 0.27 0.25 0.24 0.24 0.23 0.22 0.21 0.18 0.18 0.16 0.14 0.17 0.15 0.12 0.14 0.17 0.20 0.20 0.19 0.20 0.20 0.20 0.22 0.22 0.22 0.23 0.23 0.24 0.29 0.33 0.38 0.47 0.49 0.48 0.49 0.54 0.59 0.63 0.67 0.71 0.79 0.86 0.97 1.04 1.07 1.09 1.08 1.10 1.15 1.15 1.16 1.19 1.19 1.25 1.28 1.31 1.34 1.38 1.41 1.39 1.40 1.37 1.36 1.36 1.40 1.43 1.40 1.36 1.30 1.25 1.30 1.29 1.29 1.27 1.21 1.15 1.18 1.18 1.15 1.15 1.15 1.17
0.16 0.20 0.24 0.25 0.25 0.24 0.21 0.22 0.21 0.19 0.17 0.19 0.17 0.16 0.15 0.16 0.16 0.15 0.13 0.16 0.22 0.24 0.25 0.23 0.20 0.19 0.20 0.19 0.20 0.29 0.31 0.25 0.27 0.37 0.44 0.53 0.53 0.51 0.54 0.61 0.63 0.59 0.63 0.69 0.79 0.87 0.96 0.99 1.02 1.06 1.09 1.13 1.12 1.14 1.16 1.18 1.20 1.22 1.26 1.32 1.36 1.38 1.40 1.41 1.40 1.38 1.36 1.35 1.37 1.38 1.35 1.34 1.28 1.28 1.22 1.18 1.16 1.18 1.16 1.14 1.12 1.10 1.14 1.13 1.11 1.10
0.20 0.25 0.29 0.26 0.26 0.24 0.22 0.21 0.21 0.20 0.16 0.16 0.18 0.17 0.16 0.17 0.15 0.15 0.16 0.18 0.19 0.19 0.24 0.21 0.16 0.15 0.19 0.21 0.23 0.30 0.28 0.21 0.28 0.32 0.36 0.42 0.51 0.58 0.55 0.54 0.66 0.74 0.78 0.78 0.80 0.87 0.97 1.00 1.05 1.08 1.10 1.10 1.13 1.15 1.19 1.23 1.24 1.25 1.28 1.33 1.36 1.39 1.40 1.38 1.37 1.36 1.34 1.31 1.28 1.24 1.16 1.10 1.09 1.04 1.03 1.01 1.00 1.03 1.02 1.00 1.04 1.07 1.09 1.06 1.04 1.04
0.22 0.28 0.28 0.26 0.25 0.24 0.23 0.22 0.23 0.22 0.17 0.15 0.16 0.19 0.18 0.16 0.16 0.17 0.19 0.19 0.16 0.16 0.24 0.26 0.17 0.14 0.19 0.20 0.26 0.30 0.28 0.24 0.29 0.32 0.35 0.43 0.48 0.50 0.49 0.55 0.61 0.67 0.73 0.82 0.90 0.97 0.98 1.01 1.04 1.06 1.07 1.12 1.13 1.18 1.24 1.25 1.25 1.27 1.29 1.33 1.36 1.36 1.36 1.37 1.34 1.34 1.33 1.30 1.28 1.21 1.14 1.09 1.01 0.97 1.04 1.08 1.04 0.95 0.91 0.93 0.91 0.93 0.96 0.98 0.96 0.96
0.24 0.25 0.26 0.26 0.24 0.23 0.22 0.20 0.21 0.21 0.18 0.15 0.19 0.19 0.18 0.17 0.18 0.19 0.21 0.21 0.20 0.25 0.26 0.26 0.23 0.16 0.14 0.17 0.34 0.38 0.28 0.25 0.27 0.33 0.38 0.42 0.46 0.48 0.52 0.58 0.64 0.68 0.71 0.74 0.84 0.94 0.99 1.03 1.04 1.03 1.08 1.12 1.15 1.21 1.24 1.25 1.26 1.25 1.27 1.30 1.33 1.36 1.34 1.34 1.33 1.31 1.34 1.29 1.24 1.17 1.13 1.08 1.05 1.01 0.97 0.92 0.85 0.84 0.82 0.81 0.84 0.88 0.91 0.94 0.95 0.91
0.24 0.23 0.23 0.22 0.22 0.21 0.20 0.21 0.25 0.24 0.19 0.19 0.22 0.22 0.21 0.21 0.22 0.24 0.23 0.22 0.23 0.21 0.17 0.21 0.25 0.17 0.15 0.22 0.36 0.38 0.24 0.23 0.25 0.29 0.35 0.42 0.46 0.51 0.56 0.63 0.69 0.72 0.74 0.80 0.85 0.91 0.98 1.03 1.04 1.06 1.07 1.14 1.18 1.22 1.23 1.25 1.26 1.28 1.31 1.32 1.34 1.34 1.34 1.33 1.33 1.31 1.33 1.31 1.22 1.17 1.13 1.06 1.09 1.05 0.94 0.88 0.84 0.80 0.83 0.81 0.86 0.89 0.91 0.92 0.91 0.92
0.26 0.25 0.25 0.25 0.23 0.20 0.23 0.25 0.24 0.24 0.20 0.23 0.25 0.25 0.25 0.26 0.26 0.26 0.25 0.24 0.24 0.20 0.14 0.18 0.22 0.16 0.15 0.20 0.28 0.36 0.32 0.25 0.25 0.30 0.36 0.44 0.50 0.55 0.58 0.64 0.69 0.73 0.78 0.86 0.91 0.97 1.02 1.05 1.06 1.09 1.12 1.14 1.18 1.24 1.27 1.27 1.28 1.28 1.30 1.29 1.31 1.30 1.32 1.33 1.32 1.32 1.30 1.28 1.23 1.17 1.14 1.06 1.03 0.98 0.91 0.87 0.80 0.81 0.83 0.82 0.85 0.88 0.87 0.85 0.84 0.84
0.30 0.31 0.29 0.25 0.21 0.23 0.24 0.25 0.25 0.25 0.25 0.28 0.26 0.23 0.23 0.24 0.24 0.26 0.26 0.26 0.22 0.15 0.15 0.20 0.21 0.19 0.14 0.19 0.26 0.27 0.28 0.35 0.35 0.35 0.39 0.45 0.51 0.57 0.62 0.66 0.67 0.70 0.77 0.84 0.90 0.97 1.03 1.08 1.08 1.09 1.08 1.13 1.19 1.23 1.25 1.25 1.25 1.27 1.27 1.28 1.26 1.28 1.31 1.32 1.30 1.28 1.24 1.23 1.22 1.19 1.15 1.08 1.00 0.91 0.85 0.79 0.78 0.78 0.78 0.79 0.82 0.84 0.84 0.83 0.82 0.83
0.27 0.28 0.26 0.26 0.27 0.27 0.27 0.25 0.27 0.28 0.28 0.27 0.25 0.23 0.22 0.21 0.24 0.23 0.22 0.23 0.17 0.12 0.16 0.22 0.20 0.21 0.14 0.19 0.28 0.37 0.43 0.45 0.43 0.36 0.36 0.39 0.44 0.52 0.59 0.65 0.69 0.73 0.78 0.89 0.94 0.98 1.04 1.06 1.06 1.09 1.07 1.11 1.14 1.16 1.19 1.20 1.21 1.22 1.25 1.26 1.23 1.25 1.27 1.28 1.27 1.25 1.21 1.18 1.18 1.20 1.16 1.08 0.96 0.88 0.82 0.77 0.73 0.74 0.74 0.77 0.78 0.81 0.81 0.80 0.81 0.83
0.23 0.24 0.27 0.27 0.31 0.28 0.27 0.25 0.26 0.27 0.28 0.26 0.25 0.23 0.19 0.19 0.19 0.17 0.18 0.15 0.14 0.11 0.17 0.23 0.23 0.19 0.17 0.24 0.37 0.44 0.48 0.49 0.49 0.47 0.46 0.47 0.50 0.56 0.61 0.66 0.73 0.80 0.89 0.99 1.03 1.07 1.09 1.08 1.08 1.05 1.06 1.09 1.10 1.11 1.13 1.12 1.14 1.19 1.23 1.24 1.20 1.19 1.24 1.24 1.24 1.20 1.16 1.13 1.14 1.15 1.11 1.02 0.95 0.90 0.88 0.81 0.76 0.77 0.75 0.77 0.77 0.77 0.76 0.78 0.76 0.79
0.21 0.25 0.25 0.26 0.27 0.29 0.28 0.23 0.23 0.22 0.25 0.25 0.23 0.22 0.19 0.17 0.16 0.14 0.15 0.17 0.15 0.15 0.20 0.22 0.26 0.19 0.24 0.29 0.45 0.47 0.51 0.53 0.51 0.50 0.55 0.57 0.59 0.64 0.70 0.78 0.83 0.87 0.93 0.95 0.98 1.06 1.01 1.07 1.10 1.09 1.08 1.10 1.11 1.13 1.11 1.10 1.11 1.15 1.19 1.21 1.19 1.18 1.21 1.23 1.20 1.16 1.14 1.13 1.14 1.11 1.03 0.98 0.95 0.94 0.91 0.82 0.76 0.77 0.79 0.80 0.78 0.78 0.77 0.76 0.76 0.77
0.15 0.15 0.18 0.22 0.20 0.27 0.26 0.25 0.25 0.24 0.25 0.25 0.28 0.24 0.22 0.20 0.17 0.14 0.14 0.12 0.12 0.14 0.19 0.26 0.21 0.18 0.19 0.24 0.48 0.54 0.58 0.57 0.57 0.58 0.62 0.66 0.70 0.74 0.81 0.86 0.88 0.86 0.94 0.97 1.02 0.98 0.99 1.02 1.07 1.08 1.09 1.11 1.13 1.14 1.11 1.10 1.11 1.14 1.16 1.18 1.17 1.17 1.20 1.21 1.18 1.15 1.13 1.14 1.10 1.06 1.03 0.99 0.98 0.98 0.93 0.85 0.81 0.81 0.82 0.83 0.82 0.81 0.82 0.79 0.80 0.81
0.19 0.18 0.22 0.24 0.24 0.26 0.25 0.28 0.29 0.27 0.26 0.27 0.28 0.28 0.23 0.20 0.23 0.16 0.18 0.17 0.17 0.17 0.16 0.21 0.22 0.32 0.27 0.47 0.58 0.61 0.61 0.59 0.61 0.62 0.66 0.66 0.72 0.77 0.81 0.85 0.88 0.90 0.94 1.04 1.03 1.02 1.02 1.04 1.08 1.07 1.09 1.10 1.13 1.14 1.11 1.10 1.12 1.14 1.16 1.18 1.19 1.20 1.22 1.20 1.17 1.15 1.15 1.12 1.08 1.06 1.01 0.98 1.01 1.02 0.98 0.91 0.90 0.90 0.88 0.85 0.83 0.82 0.83 0.85 0.84 0.85
0.20 0.17 0.24 0.26 0.27 0.26 0.27 0.29 0.28 0.29 0.20 0.26 0.26 0.22 0.24 0.28 0.24 0.21 0.20 0.22 0.22 0.20 0.17 0.27 0.25 0.32 0.43 0.43 0.51 0.57 0.56 0.57 0.62 0.62 0.63 0.66 0.71 0.74 0.74 0.78 0.90 0.94 1.00 1.02 1.00 1.00 1.00 0.99 1.08 1.08 1.06 1.09 1.13 1.13 1.09 1.10 1.15 1.17 1.19 1.20 1.21 1.24 1.28 1.23 1.21 1.19 1.19 1.12 1.09 1.08 1.01 0.97 0.99 0.97 0.91 0.85 0.85 0.87 0.89 0.88 0.87 0.84 0.85 0.89 0.90 0.87
0.20 0.18 0.24 0.23 0.22 0.27 0.30 0.31 0.30 0.29 0.28 0.27 0.21 0.24 0.30 0.31 0.29 0.21 0.16 0.18 0.16 0.15 0.17 0.25 0.23 0.27 0.26 0.22 0.46 0.52 0.51 0.53 0.58 0.60 0.62 0.66 0.68 0.69 0.73 0.85 0.93 1.00 1.01 0.99 0.99 1.00 1.01 1.03 1.05 1.05 1.06 1.08 1.11 1.12 1.10 1.12 1.18 1.26 1.24 1.26 1.25 1.25 1.32 1.27 1.26 1.20 1.17 1.12 1.07 1.08 1.01 0.98 0.99 0.96 0.88 0.84 0.84 0.87 0.87 0.88 0.88 0.86 0.85 0.87 0.89 0.86
0.28 0.19 0.23 0.25 0.25 0.27 0.33 0.29 0.27 0.30 0.32 0.26 0.25 0.31 0.22 0.20 0.17 0.21 0.19 0.14 0.13 0.12 0.14 0.21 0.25 0.26 0.29 0.28 0.39 0.42 0.44 0.48 0.55 0.61 0.62 0.65 0.69 0.72 0.78 0.87 0.94 0.99 0.97 0.96 0.96 0.97 1.00 1.05 1.06 1.03 1.03 1.09 1.12 1.12 1.11 1.15 1.21 1.26 1.25 1.24 1.28 1.24 1.27 1.24 1.23 1.16 1.10 1.10 1.10 1.09 1.04 1.00 0.98 0.93 0.88 0.87 0.87 0.87 0.85 0.85 0.86 0.84 0.83 0.84 0.84 0.80
0.31 0.21 0.21 0.26 0.25 0.28 0.30 0.28 0.21 0.24 0.29 0.30 0.31 0.27 0.31 0.25 0.23 0.19 0.18 0.20 0.18 0.15 0.14 0.15 0.21 0.20 0.31 0.34 0.42 0.42 0.47 0.51 0.55 0.58 0.62 0.66 0.70 0.73 0.77 0.83 0.88 0.91 0.93 0.94 0.96 0.98 1.01 1.06 1.07 1.06 1.04 1.08 1.13 1.13 1.14 1.16 1.20 1.21 1.21 1.21 1.22 1.25 1.26 1.21 1.18 1.14 1.09 1.10 1.12 1.13 1.09 1.02 0.96 0.93 0.91 0.84 0.82 0.83 0.84 0.86 0.84 0.81 0.76 0.75 0.77 0.73
0.28 0.29 0.20 0.24 0.28 0.27 0.23 0.29 0.26 0.26 0.24 0.25 0.24 0.24 0.26 0.25 0.31 0.27 0.27 0.22 0.19 0.16 0.16 0.16 0.15 0.20 0.32 0.46 0.44 0.45 0.50 0.55 0.56 0.57 0.60 0.63 0.71 0.78 0.82 0.88 0.92 0.94 0.95 0.97 0.99 1.02 1.06 1.08 1.10 1.10 1.12 1.14 1.16 1.15 1.16 1.15 1.13 1.15 1.20 1.22 1.15 1.12 1.14 1.15 1.18 1.15 1.12 1.12 1.12 1.12 1.05 0.97 0.92 0.92 0.90 0.83 0.80 0.81 0.84 0.87 0.82 0.78 0.73 0.73 0.70 0.68
0.28 0.28 0.22 0.24 0.24 0.23 0.25 0.36 0.36 0.33 0.30 0.26 0.24 0.22 0.23 0.22 0.20 0.18 0.19 0.28 0.25 0.20 0.17 0.16 0.14 0.22 0.37 0.51 0.49 0.49 0.54 0.55 0.59 0.60 0.64 0.70 0.72 0.81 0.89 0.88 0.93 0.96 1.00 1.04 1.05 1.06 1.08 1.10 1.13 1.14 1.16 1.17 1.15 1.12 1.10 1.12 1.08 1.03 1.02 1.08 1.15 1.13 1.15 1.14 1.14 1.14 1.12 1.13 1.12 1.09 1.05 0.97 0.92 0.94 0.90 0.81 0.79 0.80 0.86 0.86 0.81 0.80 0.76 0.70 0.69 0.68
0.36 0.34 0.28 0.24 0.25 0.26 0.31 0.37 0.40 0.40 0.39 0.34 0.29 0.24 0.27 0.25 0.24 0.21 0.16 0.20 0.25 0.25 0.25 0.23 0.18 0.21 0.44 0.54 0.54 0.55 0.58 0.62 0.66 0.70 0.68 0.75 0.79 0.82 0.92 0.90 0.97 0.98 1.00 1.05 1.04 1.06 1.09 1.09 1.10 1.14 1.13 1.15 1.16 1.15 1.13 1.11 1.09 1.05 1.04 1.06 1.08 1.09 1.13 1.15 1.13 1.11 1.11 1.10 1.09 1.09 1.07 0.97 0.93 0.95 0.89 0.81 0.79 0.81 0.86 0.87 0.84 0.82 0.78 0.73 0.70 0.70
0.43 0.33 0.27 0.27 0.31 0.33 0.36 0.38 0.39 0.39 0.38 0.33 0.33 0.34 0.29 0.24 0.24 0.23 0.23 0.26 0.24 0.26 0.22 0.23 0.18 0.24 0.45 0.57 0.58 0.61 0.66 0.71 0.75 0.74 0.71 0.74 0.79 0.84 0.87 0.91 0.91 0.93 0.99 1.02 1.03 1.05 1.07 1.08 1.08 1.07 1.07 1.09 1.12 1.13 1.12 1.12 1.12 1.12 1.10 1.07 1.08 1.07 1.10 1.14 1.15 1.14 1.12 1.08 1.08 1.12 1.08 1.00 0.99 0.98 0.91 0.81 0.79 0.81 0.86 0.90 0.89 0.87 0.83 0.78 0.73 0.67
0.33 0.37 0.30 0.25 0.24 0.26 0.28 0.32 0.32 0.36 0.37 0.33 0.32 0.35 0.36 0.32 0.29 0.28 0.28 0.30 0.23 0.25 0.25 0.22 0.17 0.26 0.44 0.57 0.60 0.63 0.67 0.69 0.72 0.75 0.77 0.75 0.79 0.82 0.85 0.87 0.90 0.94 0.96 0.98 1.01 1.04 1.05 1.04 1.02 1.04 1.07 1.09 1.12 1.12 1.12 1.10 1.12 1.14 1.12 1.12 1.10 1.10 1.13 1.16 1.18 1.14 1.11 1.09 1.10 1.11 1.09 1.06 1.02 0.99 0.93 0.84 0.83 0.83 0.87 0.92 0.93 0.91 0.85 0.82 0.74 0.69
0.39 0.38 0.32 0.24 0.19 0.17 0.17 0.17 0.20 0.24 0.30 0.34 0.37 0.37 0.36 0.31 0.28 0.25 0.20 0.23 0.20 0.26 0.26 0.22 0.22 0.35 0.49 0.55 0.56 0.61 0.65 0.67 0.72 0.75 0.79 0.81 0.81 0.80 0.82 0.82 0.88 0.91 0.94 0.95 0.98 1.00 0.99 1.01 1.03 1.04 1.07 1.11 1.12 1.12 1.13 1.14 1.14 1.16 1.16 1.16 1.16 1.14 1.17 1.18 1.19 1.15 1.11 1.12 1.12 1.11 1.09 1.08 1.06 1.03 0.97 0.92 0.88 0.86 0.88 0.93 0.94 0.91 0.89 0.87 0.79 0.71
0.42 0.43 0.38 0.33 0.28 0.24 0.26 0.29 0.33 0.35 0.33 0.28 0.32 0.34 0.35 0.36 0.34 0.30 0.26 0.22 0.19 0.25 0.24 0.27 0.29 0.34 0.41 0.48 0.50 0.56 0.62 0.63 0.65 0.70 0.71 0.73 0.75 0.79 0.82 0.83 0.85 0.88 0.91 0.92 0.93 0.96 0.99 1.00 1.01 1.04 1.06 1.09 1.13 1.14 1.15 1.12 1.12 1.13 1.14 1.14 1.17 1.21 1.19 1.20 1.18 1.15 1.13 1.13 1.12 1.11 1.10 1.10 1.08 1.06 1.04 1.03 1.00 0.94 0.90 0.93 0.93 0.90 0.90 0.91 0.87 0.78
0.42 0.37 0.40 0.39 0.38 0.37 0.37 0.36 0.39 0.37 0.32 0.34 0.33 0.33 0.36 0.35 0.35 0.31 0.25 0.23 0.28 0.24 0.21 0.33 0.39 0.35 0.40 0.47 0.51 0.55 0.60 0.62 0.65 0.67 0.69 0.72 0.73 0.74 0.78 0.81 0.85 0.88 0.90 0.92 0.93 0.93 0.94 0.97 1.00 1.01 1.04 1.06 1.09 1.10 1.15 1.15 1.13 1.14 1.16 1.16 1.17 1.19 1.19 1.20 1.17 1.12 1.10 1.09 1.08 1.08 1.10 1.12 1.13 1.11 1.09 1.07 1.04 0.99 0.92 0.92 0.92 0.92 0.94 0.95 0.92 0.87
0.40 0.35 0.42 0.40 0.39 0.43 0.43 0.40 0.41 0.39 0.38 0.37 0.37 0.36 0.34 0.36 0.35 0.30 0.31 0.33 0.32 0.25 0.22 0.34 0.41 0.38 0.43 0.47 0.53 0.57 0.59 0.61 0.65 0.67 0.70 0.73 0.75 0.76 0.79 0.79 0.80 0.81 0.84 0.86 0.87 0.90 0.93 0.96 0.98 1.01 1.04 1.07 1.09 1.08 1.11 1.12 1.11 1.13 1.14 1.17 1.18 1.21 1.21 1.21 1.16 1.12 1.10 1.08 1.07 1.08 1.11 1.12 1.13 1.13 1.11 1.08 1.04 1.01 0.92 0.89 0.92 0.96 0.97 0.94 0.96 0.95
0.43 0.39 0.42 0.42 0.40 0.42 0.44 0.43 0.42 0.39 0.38 0.37 0.37 0.37 0.38 0.38 0.36 0.36 0.36 0.38 0.35 0.33 0.36 0.38 0.41 0.40 0.45 0.49 0.53 0.57 0.62 0.64 0.65 0.69 0.71 0.71 0.73 0.75 0.76 0.77 0.78 0.79 0.81 0.82 0.83 0.87 0.90 0.94 0.96 1.00 1.02 1.04 1.05 1.06 1.07 1.07 1.06 1.09 1.11 1.12 1.16 1.19 1.21 1.19 1.14 1.13 1.11 1.07 1.11 1.13 1.09 1.09 1.12 1.13 1.13 1.12 1.07 1.04 0.95 0.93 0.92 0.91 0.94 0.94 0.99 0.98
0.42 0.40 0.45 0.43 0.39 0.40 0.44 0.45 0.44 0.41 0.39 0.36 0.39 0.40 0.40 0.40 0.40 0.41 0.40 0.41 0.42 0.39 0.42 0.41 0.40 0.39 0.50 0.56 0.56 0.60 0.62 0.64 0.65 0.64 0.66 0.70 0.73 0.74 0.74 0.76 0.78 0.80 0.81 0.82 0.83 0.86 0.89 0.91 0.93 0.95 0.96 0.97 0.98 1.00 1.02 1.04 1.06 1.09 1.14 1.16 1.17 1.17 1.19 1.19 1.13 1.11 1.09 1.07 1.12 1.16 1.20 1.16 1.15 1.18 1.17 1.15 1.12 1.11 1.07 1.03 0.98 0.93 0.93 0.96 1.00 0.96
0.46 0.42 0.47 0.43 0.35 0.36 0.42 0.43 0.42 0.42 0.41 0.38 0.37 0.38 0.38 0.38 0.35 0.38 0.37 0.43 0.38 0.36 0.40 0.41 0.38 0.39 0.49 0.56 0.58 0.59 0.60 0.60 0.60 0.62 0.65 0.67 0.71 0.73 0.73 0.73 0.75 0.76 0.78 0.79 0.83 0.84 0.88 0.90 0.90 0.89 0.89 0.91 0.94 0.96 0.98 1.01 1.04 1.06 1.07 1.13 1.13 1.13 1.14 1.11 1.09 1.08 1.09 1.08 1.09 1.12 1.13 1.18 1.18 1.16 1.14 1.16 1.12 1.09 1.06 1.05 1.04 1.00 0.97 0.97 0.96 0.94
0.44 0.43 0.40 0.39 0.34 0.35 0.43 0.44 0.42 0.42 0.39 0.34 0.35 0.40 0.42 0.42 0.43 0.44 0.44 0.47 0.45 0.47 0.38 0.34 0.38 0.49 0.53 0.57 0.56 0.57 0.59 0.59 0.61 0.63 0.64 0.66 0.69 0.71 0.71 0.73 0.73 0.74 0.74 0.77 0.81 0.83 0.85 0.86 0.86 0.87 0.87 0.90 0.92 0.92 0.94 0.98 0.98 0.97 1.00 1.02 1.04 1.06 1.04 1.03 1.03 1.04 1.04 1.07 1.09 1.07 1.12 1.14 1.13 1.11 1.11 1.12 1.11 1.08 1.04 1.01 1.00 1.00 0.96 0.94 0.96 0.95
0.44 0.43 0.41 0.44 0.33 0.36 0.42 0.43 0.43 0.36 0.27 0.29 0.48 0.52 0.50 0.44 0.44 0.40 0.39 0.43 0.48 0.49 0.44 0.49 0.50 0.54 0.56 0.56 0.55 0.56 0.58 0.59 0.62 0.65 0.68 0.67 0.67 0.68 0.70 0.72 0.73 0.74 0.76 0.77 0.79 0.81 0.83 0.84 0.85 0.85 0.86 0.87 0.90 0.92 0.95 0.97 0.95 0.95 0.96 0.96 0.96 0.95 0.93 0.93 0.94 0.95 0.96 1.01 1.04 1.06 1.08 1.07 1.08 1.09 1.09 1.10 1.09 1.07 1.03 0.99 0.96 0.96 0.95 0.97 0.98 0.94
0.38 0.39 0.37 0.41 0.34 0.33 0.41 0.41 0.34 0.27 0.29 0.46 0.54 0.55 0.55 0.53 0.52 0.47 0.47 0.49 0.51 0.52 0.52 0.50 0.51 0.52 0.56 0.59 0.60 0.61 0.63 0.65 0.67 0.66 0.67 0.70 0.70 0.70 0.70 0.70 0.70 0.74 0.76 0.79 0.82 0.81 0.82 0.83 0.84 0.84 0.83 0.85 0.88 0.90 0.93 0.93 0.94 0.94 0.93 0.93 0.90 0.89 0.88 0.87 0.88 0.88 0.89 0.91 0.94 0.98 1.01 1.02 1.05 1.06 1.09 1.10 1.08 1.04 1.01 1.00 1.00 0.97 0.95 0.95 0.96 0.96
0.37 0.36 0.37 0.35 0.37 0.39 0.35 0.34 0.24 0.26 0.43 0.51 0.53 0.54 0.58 0.56 0.55 0.52 0.47 0.50 0.53 0.53 0.54 0.51 0.52 0.55 0.57 0.59 0.62 0.65 0.65 0.66 0.66 0.67 0.68 0.70 0.70 0.69 0.69 0.68 0.69 0.70 0.72 0.75 0.75 0.75 0.79 0.82 0.82 0.82 0.81 0.83 0.86 0.89 0.90 0.89 0.90 0.90 0.88 0.88 0.85 0.83 0.82 0.82 0.82 0.82 0.84 0.85 0.88 0.91 0.92 0.94 0.95 0.97 0.98 0.99 1.02 1.00 0.98 1.01 1.04 1.03 1.03 1.01 1.03 1.05
0.41 0.40 0.38 0.31 0.38 0.28 0.31 0.31 0.29 0.42 0.41 0.45 0.45 0.47 0.49 0.46 0.48 0.46 0.39 0.44 0.53 0.55 0.54 0.54 0.54 0.56 0.58 0.60 0.63 0.65 0.66 0.65 0.64 0.66 0.69 0.71 0.71 0.72 0.72 0.71 0.72 0.73 0.73 0.76 0.79 0.81 0.82 0.82 0.81 0.80 0.80 0.80 0.82 0.83 0.83 0.85 0.88 0.87 0.85 0.83 0.81 0.80 0.79 0.78 0.77 0.77 0.79 0.80 0.82 0.84 0.86 0.88 0.87 0.87 0.90 0.92 0.94 0.95 0.97 1.00 1.02 1.04 1.08 1.06 1.05 1.04
0.46 0.37 0.41 0.32 0.32 0.36 0.30 0.27 0.29 0.27 0.23 0.34 0.45 0.52 0.56 0.56 0.56 0.56 0.50 0.44 0.56 0.56 0.57 0.55 0.53 0.55 0.56 0.59 0.60 0.62 0.63 0.57 0.53 0.56 0.66 0.71 0.70 0.69 0.71 0.73 0.74 0.74 0.75 0.75 0.76 0.77 0.77 0.80 0.81 0.82 0.81 0.78 0.76 0.77 0.78 0.78 0.80 0.82 0.81 0.78 0.77 0.77 0.76 0.74 0.73 0.73 0.74 0.75 0.76 0.77 0.79 0.82 0.85 0.85 0.85 0.84 0.85 0.87 0.89 0.91 0.94 0.96 1.00 0.98 0.98 0.98
0.45 0.44 0.42 0.33 0.28 0.34 0.31 0.26 0.25 0.22 0.27 0.40 0.44 0.49 0.54 0.57 0.58 0.57 0.45 0.36 0.53 0.57 0.58 0.57 0.56 0.57 0.58 0.58 0.60 0.62 0.57 0.49 0.48 0.54 0.62 0.67 0.68 0.71 0.71 0.73 0.75 0.74 0.76 0.76 0.74 0.75 0.76 0.77 0.78 0.78 0.78 0.78 0.77 0.78 0.77 0.76 0.76 0.76 0.76 0.75 0.74 0.74 0.73 0.72 0.71 0.71 0.72 0.73 0.74 0.74 0.75 0.76 0.78 0.79 0.80 0.80 0.81 0.82 0.82 0.82 0.82 0.84 0.86 0.87 0.88 0.89
0.37 0.37 0.37 0.33 0.29 0.31 0.30 0.26 0.25 0.30 0.29 0.40 0.45 0.48 0.52 0.58 0.58 0.49 0.29 0.31 0.51 0.57 0.58 0.57 0.56 0.57 0.58 0.59 0.60 0.58 0.53 0.48 0.50 0.57 0.67 0.70 0.72 0.73 0.73 0.73 0.74 0.74 0.74 0.74 0.75 0.74 0.74 0.74 0.74 0.73 0.72 0.71 0.72 0.74 0.75 0.76 0.75 0.75 0.74 0.73 0.74 0.73 0.73 0.73 0.74 0.75 0.75 0.74 0.74 0.75 0.75 0.75 0.75 0.75 0.76 0.77 0.78 0.80 0.82 0.83 0.82 0.81 0.81 0.81 0.81 0.81
0.30 0.32 0.34 0.29 0.30 0.31 0.29 0.28 0.31 0.33 0.42 0.46 0.47 0.50 0.53 0.56 0.49 0.32 0.25 0.38 0.55 0.57 0.59 0.58 0.57 0.58 0.59 0.58 0.58 0.53 0.56 0.60 0.62 0.67 0.70 0.72 0.71 0.72 0.74 0.75 0.73 0.73 0.72 0.72 0.72 0.72 0.71 0.71 0.70 0.70 0.69 0.70 0.70 0.71 0.71 0.72 0.71 0.71 0.70 0.71 0.71 0.72 0.74 0.75 0.75 0.74 0.73 0.73 0.72 0.72 0.72 0.73 0.74 0.73 0.74 0.75 0.77 0.79 0.80 0.82 0.82 0.84 0.82 0.80 0.79 0.77
0.29 0.30 0.33 0.32 0.29 0.28 0.29 0.26 0.28 0.33 0.42 0.47 0.50 0.51 0.56 0.46 0.31 0.30 0.45 0.56 0.57 0.56 0.60 0.61 0.58 0.60 0.60 0.57 0.57 0.58 0.60 0.64 0.67 0.69 0.68 0.68 0.68 0.69 0.70 0.70 0.71 0.71 0.73 0.73 0.73 0.72 0.71 0.69 0.68 0.67 0.67 0.68 0.68 0.68 0.68 0.67 0.66 0.69 0.69 0.68 0.68 0.70 0.71 0.71 0.70 0.69 0.68 0.67 0.67 0.68 0.68 0.69 0.70 0.71 0.71 0.71 0.72 0.71 0.72 0.75 0.76 0.77 0.80 0.82 0.83 0.82
0.29 0.27 0.27 0.27 0.31 0.32 0.30 0.27 0.25 0.22 0.38 0.48 0.50 0.49 0.54 0.39 0.41 0.51 0.55 0.58 0.60 0.59 0.60 0.61 0.60 0.58 0.58 0.55 0.57 0.59 0.60 0.61 0.62 0.62 0.62 0.62 0.61 0.61 0.61 0.61 0.61 0.62 0.63 0.64 0.64 0.66 0.66 0.66 0.67 0.67 0.66 0.66 0.66 0.65 0.65 0.64 0.62 0.64 0.65 0.64 0.66 0.68 0.69 0.69 0.68 0.67 0.66 0.66 0.65 0.66 0.66 0.67 0.67 0.67 0.68 0.67 0.67 0.66 0.65 0.66 0.67 0.67 0.68 0.67 0.67 0.65
0.35 0.28 0.29 0.31 0.35 0.26 0.26 0.25 0.26 0.36 0.45 0.52 0.49 0.39 0.49 0.52 0.57 0.57 0.56 0.54 0.60 0.61 0.61 0.60 0.59 0.58 0.58 0.57 0.56 0.57 0.57 0.56 0.57 0.58 0.57 0.57 0.57 0.57 0.57 0.57 0.57 0.58 0.58 0.59 0.59 0.60 0.60 0.60 0.62 0.64 0.66 0.67 0.66 0.65 0.64 0.61 0.59 0.59 0.59 0.60 0.65 0.67 0.67 0.66 0.66 0.65 0.65 0.65 0.65 0.65 0.65 0.65 0.65 0.65 0.65 0.65 0.65 0.64 0.63 0.63 0.64 0.64 0.64 0.64 0.63 0.62
0.36 0.31 0.34 0.29 0.38 0.32 0.30 0.35 0.44 0.49 0.50 0.53 0.53 0.51 0.54 0.58 0.61 0.61 0.59 0.58 0.57 0.59 0.64 0.59 0.58 0.58 0.58 0.56 0.55 0.53 0.51 0.52 0.53 0.53 0.51 0.51 0.51 0.50 0.50 0.50 0.50 0.51 0.53 0.55 0.56 0.58 0.57 0.57 0.57 0.58 0.59 0.61 0.62 0.62 0.62 0.62 0.60 0.59 0.57 0.60 0.62 0.61 0.62 0.62 0.62 0.61 0.60 0.60 0.60 0.60 0.61 0.62 0.62 0.62 0.62 0.62 0.62 0.60 0.59 0.59 0.61 0.61 0.63 0.62 0.61 0.60
0.39 0.39 0.41 0.37 0.36 0.44 0.46 0.46 0.49 0.49 0.50 0.51 0.54 0.56 0.56 0.58 0.61 0.61 0.59 0.57 0.58 0.60 0.61 0.58 0.58 0.56 0.55 0.55 0.52 0.51 0.51 0.50 0.50 0.50 0.50 0.49 0.49 0.49 0.50 0.49 0.50 0.50 0.51 0.52 0.53 0.54 0.55 0.56 0.56 0.55 0.54 0.55 0.57 0.57 0.58 0.58 0.58 0.55 0.57 0.59 0.59 0.59 0.59 0.58 0.57 0.58 0.58 0.58 0.58 0.57 0.57 0.56 0.57 0.58 0.58 0.59 0.59 0.58 0.58 0.57 0.57 0.56 0.56 0.55 0.55 0.55
0.36 0.38 0.35 0.31 0.36 0.32 0.28 0.44 0.44 0.46 0.49 0.50 0.52 0.56 0.58 0.59 0.59 0.60 0.58 0.58 0.58 0.60 0.59 0.59 0.58 0.55 0.54 0.54 0.52 0.51 0.51 0.51 0.50 0.50 0.50 0.50 0.49 0.49 0.49 0.48 0.49 0.49 0.49 0.48 0.50 0.51 0.50 0.50 0.50 0.49 0.49 0.49 0.51 0.52 0.53 0.53 0.54 0.54 0.55 0.55 0.56 0.56 0.55 0.54 0.52 0.51 0.51 0.50 0.51 0.52 0.52 0.51 0.50 0.50 0.51 0.51 0.51 0.52 0.52 0.52 0.51 0.50 0.49 0.49 0.48 0.48
0.28 0.39 0.30 0.31 0.31 0.29 0.31 0.40 0.44 0.48 0.49 0.51 0.52 0.51 0.51 0.54 0.57 0.58 0.59 0.60 0.60 0.60 0.59 0.58 0.58 0.55 0.55 0.52 0.53 0.52 0.51 0.50 0.49 0.49 0.49 0.49 0.49 0.49 0.48 0.48 0.48 0.48 0.49 0.50 0.49 0.49 0.48 0.48 0.47 0.47 0.47 0.47 0.49 0.50 0.49 0.49 0.49 0.50 0.51 0.52 0.52 0.52 0.51 0.49 0.48 0.47 0.47 0.47 0.47 0.47 0.46 0.45 0.45 0.45 0.45 0.45 0.45 0.44 0.45 0.45 0.46 0.45 0.44 0.43 0.43 0.42
0.29 0.31 0.22 0.29 0.27 0.32 0.36 0.39 0.42 0.44 0.45 0.47 0.50 0.52 0.54 0.56 0.56 0.56 0.58 0.58 0.59 0.58 0.57 0.58 0.58 0.56 0.55 0.53 0.53 0.51 0.49 0.49 0.49 0.49 0.49 0.49 0.48 0.47 0.47 0.48 0.48 0.48 0.49 0.48 0.49 0.48 0.47 0.47 0.47 0.47 0.47 0.47 0.48 0.48 0.48 0.47 0.47 0.48 0.48 0.48 0.48 0.47 0.45 0.44 0.43 0.43 0.43 0.43 0.42 0.41 0.42 0.41 0.41 0.40 0.40 0.39 0.40 0.40 0.40 0.39 0.38 0.38 0.39 0.41 0.41 0.40
0.27 0.21 0.26 0.25 0.20 0.22 0.25 0.31 0.36 0.30 0.33 0.41 0.47 0.51 0.53 0.55 0.55 0.55 0.56 0.56 0.57 0.56 0.56 0.55 0.55 0.56 0.55 0.54 0.51 0.49 0.46 0.47 0.48 0.49 0.47 0.47 0.47 0.47 0.47 0.47 0.47 0.47 0.47 0.48 0.47 0.47 0.47 0.48 0.47 0.47 0.47 0.47 0.48 0.48 0.47 0.47 0.47 0.47 0.47 0.47 0.46 0.45 0.43 0.42 0.41 0.40 0.39 0.39 0.38 0.38 0.38 0.37 0.37 0.37 0.37 0.36 0.36 0.36 0.36 0.39 0.38 0.37 0.35 0.35 0.37 0.38
0.23 0.24 0.24 0.19 0.19 0.19 0.28 0.32 0.34 0.37 0.40 0.43 0.46 0.49 0.51 0.52 0.51 0.50 0.51 0.52 0.54 0.55 0.54 0.53 0.52 0.52 0.51 0.50 0.50 0.46 0.45 0.45 0.46 0.46 0.44 0.44 0.44 0.44 0.45 0.45 0.45 0.45 0.44 0.45 0.44 0.44 0.44 0.45 0.45 0.45 0.44 0.45 0.46 0.46 0.46 0.45 0.46 0.46 0.46 0.45 0.45 0.44 0.42 0.40 0.38 0.37 0.37 0.37 0.36 0.36 0.35 0.35 0.34 0.34 0.34 0.33 0.33 0.32 0.30 0.30 0.32 0.34 0.34 0.34 0.33 0.33
Wind_Speed
17 17 18 18 17 16 17 17 16 16 15 14 15 15 16 16 16 14 15 17 16 16 18 19 19 20 21 21 20 21 23 24 24 23 23 23 22 22 20 19 19 18 18 18 17 16 15 14 14 13 13 12 12 12 12 12 12 12 12 12 12 12 12 12 11 12 12 11 11 11 12 11 11 10 10 9 9 9 9 9 10 10 10 9 9 8
16 18 19 18 18 17 17 16 15 15 15 16 16 17 17 16 16 15 16 18 16 16 18 17 17 20 21 20 20 21 22 24 25 25 24 24 24 23 21 21 19 18 18 19 18 17 16 15 15 14 13 13 12 12 11 12 12 12 12 12 12 12 12 12 12 12 12 12 12 12 12 12 11 11 10 10 10 9 9 9 9 9 9 8 8 8
16 18 19 18 18 17 15 15 15 15 16 15 15 16 17 16 15 15 15 16 15 16 17 16 17 19 20 19 20 21 22 24 27 27 25 25 24 22 22 21 19 18 19 19 19 18 17 16 16 15 14 13 13 12 12 12 12 12 12 13 13 12 12 12 12 12 12 12 12 12 12 12 11 11 10 10 10 9 9 9 9 8 8 8 8 8
16 17 18 18 18 16 16 15 14 15 16 15 15 16 17 15 14 14 14 13 14 16 16 16 16 17 17 17 18 19 21 23 25 25 24 25 25 24 23 22 20 19 19 20 20 19 18 17 17 16 15 14 13 13 12 12 12 12 13 13 13 13 13 13 13 13 12 12 12 12 12 12 11 11 10 9 10 10 9 9 9 9 9 8 8 8
18 17 15 15 15 16 16 15 14 15 16 16 16 16 16 15 15 16 14 13 14 14 14 14 14 15 14 14 16 16 18 21 21 22 22 23 24 23 23 22 21 20 19 20 20 19 18 18 18 17 15 14 13 13 13 12 12 12 13 13 13 13 13 13 13 13 12 12 12 12 12 12 11 10 10 10 10 10 10 9 9 9 9 8 8 8
19 17 14 13 14 14 15 15 14 15 15 15 15 16 17 16 16 16 13 12 12 13 13 12 12 14 14 14 15 14 15 17 18 19 20 21 22 22 22 22 21 20 19 20 20 20 19 19 18 16 15 14 14 14 13 13 13 13 13 13 13 14 14 14 14 13 13 13 13 13 13 12 12 11 11 11 11 11 10 9 9 9 8 8 8 8
17 16 16 15 14 14 14 15 15 13 13 14 14 15 16 16 16 15 13 12 12 13 13 12 12 14 14 13 14 13 13 14 15 17 18 20 21 21 22 21 20 20 19 19 20 21 21 19 18 16 15 15 14 14 13 13 13 13 13 13 14 14 14 15 15 14 14 14 14 14 14 13 12 12 11 11 11 11 10 10 9 9 8 8 7 7
14 14 15 15 14 14 14 13 13 12 11 13 12 12 13 14 15 14 13 13 14 14 14 13 12 14 14 13 13 11 12 12 14 16 17 18 20 20 20 20 20 20 19 20 21 22 21 19 17 16 15 15 15 14 14 14 14 14 14 14 14 15 15 15 15 15 15 15 15 15 14 13 13 13 12 11 11 11 11 10 9 9 8 7 7 6
13 14 15 15 14 14 13 12 12 11 11 12 11 10 12 13 14 13 13 14 14 13 14 14 12 12 13 13 11 9 10 12 13 14 15 17 18 18 18 19 19 19 19 20 21 22 20 18 17 16 15 14 14 14 14 14 14 14 14 14 15 15 15 16 16 16 15 15 16 16 15 14 13 13 12 12 12 11 11 10 10 9 8 7 7 6
13 14 15 14 14 15 14 12 11 11 11 10 9 10 10 10 11 12 12 13 12 12 15 16 13 11 12 12 10 9 9 12 12 12 13 14 16 16 17 18 18 18 19 20 21 21 20 18 17 16 14 14 14 14 14 14 14 14 14 14 14 15 15 16 16 16 16 16 16 16 16 15 14 14 13 13 12 12 11 11 10 10 8 7 6 5
13 13 14 14 14 14 14 12 12 13 12 9 8 9 9 9 10 11 11 11 11 13 16 16 13 12 11 11 11 10 9 11 12 12 12 13 15 16 17 17 18 19 19 20 22 21 20 18 16 15 14 14 13 13 14 14 14 14 14 14 14 15 15 16 16 16 16 16 16 17 16 16 15 15 14 14 13 12 12 11 11 10 9 7 6 5
14 14 14 15 15 14 13 12 12 12 12 10 9 9 9 10 10 10 11 11 12 14 15 15 13 13 12 11 11 11 10 11 12 13 13 13 15 16 17 18 19 20 20 21 21 20 19 17 16 15 14 13 13 13 14 14 14 14 14 14 15 15 16 16 16 16 16 17 17 17 17 16 16 16 15 14 14 13 12 12 11 10 9 7 6 6
15 16 15 14 15 15 13 12 11 10 10 10 10 9 9 10 9 10 11 11 12 14 14 13 12 12 13 13 12 11 10 11 12 13 13 13 14 16 16 17 18 19 19 20 20 19 18 16 15 14 13 13 13 13 13 14 14 14 15 15 15 16 16 17 17 17 17 17 17 17 17 17 17 16 15 14 14 13 12 11 11 10 9 8 7 7
14 15 15 14 14 15 14 13 11 10 10 10 10 11 10 9 9 10 11 10 12 13 14 13 12 12 13 13 13 12 11 11 12 12 13 13 13 14 15 15 16 17 18 18 18 17 16 13 13 13 12 13 13 13 14 14 14 15 15 16 17 17 17 18 18 18 18 18 17 17 17 17 17 17 15 14 14 13 12 12 11 10 9 8 7 7
13 12 14 15 14 14 15 14 13 11 11 11 11 11 12 11 10 11 11 11 11 11 12 13 13 12 12 12 12 12 11 9 9 9 10 11 12 12 13 14 16 17 17 16 15 15 13 11 11 12 12 13 14 14 14 15 15 15 15 16 17 18 18 18 19 19 19 18 18 17 17 17 17 17 16 15 14 13 12 12 11 10 9 8 8 7
12 13 14 14 13 13 14 13 12 10 11 12 12 11 12 13 11 10 11 10 9 9 10 12 13 13 13 12 12 11 9 8 7 7 7 8 10 11 12 14 16 16 16 15 14 14 12 11 11 11 11 12 13 14 14 14 15 15 16 17 17 18 19 20 19 20 20 19 18 17 17 18 18 18 16 15 14 13 12 12 11 10 9 9 8 8
12 13 13 13 13 14 14 14 12 12 12 12 12 13 13 12 11 10 10 9 8 9 11 12 13 13 12 12 12 10 9 8 8 8 8 8 9 10 12 15 16 15 15 14 12 12 12 11 11 11 11 12 12 13 13 14 15 15 16 16 17 19 19 20 20 20 19 19 18 17 17 18 18 18 17 15 14 13 12 11 11 10 9 9 9 8
12 13 13 13 14 15 14 13 12 12 12 12 13 14 12 10 10 10 10 8 7 10 11 10 11 13 12 12 12 10 9 9 10 10 10 9 9 9 11 12 13 14 14 13 11 11 10 11 11 11 11 12 13 13 13 13 14 15 16 16 16 17 17 18 19 19 18 18 17 17 17 17 18 18 17 15 14 13 12 11 11 10 10 10 9 8
12 12 13 13 14 14 13 12 12 12 13 13 13 12 11 10 11 11 10 9 9 10 11 10 11 13 14 13 11 11 10 11 11 11 11 10 10 10 9 8 10 12 12 12 12 11 11 11 12 12 12 11 12 13 14 14 14 15 15 15 14 14 15 16 17 17 18 18 17 16 16 17 18 17 16 16 15 13 12 12 11 11 11 10 9 8
13 12 13 13 14 13 12 12 13 14 13 12 13 12 12 11 11 12 11 11 10 10 10 10 10 12 14 14 12 12 12 12 12 12 11 10 10 11 10 9 10 12 11 10 10 11 11 12 12 12 12 12 12 12 13 14 15 14 14 12 12 13 14 15 17 18 18 18 17 17 17 17 17 17 16 16 15 14 13 12 12 11 11 11 9 9
14 13 13 13 13 12 12 13 13 14 13 13 13 14 13 12 11 11 11 10 10 10 10 10 10 12 13 13 13 13 13 13 13 13 12 12 11 11 11 10 11 12 10 9 10 10 11 12 12 12 12 12 12 13 13 13 13 14 13 11 10 12 14 15 17 18 18 18 18 18 18 17 17 16 16 15 14 14 13 13 12 12 11 10 9 8
14 14 14 14 12 13 14 14 13 13 14 14 14 15 15 14 13 11 11 11 10 10 11 10 10 12 12 12 13 13 13 13 13 13 12 12 12 12 11 11 12 12 11 10 10 11 12 12 12 13 13 13 14 15 15 15 14 14 14 13 12 13 15 16 17 18 18 18 18 18 18 18 17 16 16 15 15 14 14 13 13 12 11 10 9 8
14 13 13 13 13 14 16 16 14 13 13 12 12 14 14 14 13 12 12 12 11 10 11 10 10 11 11 11 11 11 11 11 10 10 9 9 9 9 9 10 10 11 11 11 11 11 12 12 12 12 13 14 15 16 17 16 16 15 14 14 14 15 15 16 17 18 18 18 19 19 19 18 18 17 16 16 16 16 15 14 14 13 12 11 10 9
14 12 12 13 13 13 14 14 13 12 11 10 11 12 13 14 14 14 13 12 11 11 10 9 10 12 11 10 10 9 8 8 8 8 8 7 6 6 7 8 8 9 10 11 11 11 11 11 12 12 12 14 15 16 16 16 15 15 14 14 15 15 16 16 17 18 18 18 19 20 19 19 18 17 17 16 16 16 16 15 14 13 12 11 10 10
15 14 12 11 11 12 13 13 13 12 11 11 11 11 11 13 13 13 13 11 11 13 11 10 10 11 10 9 9 9 7 7 6 6 7 7 6 5 6 7 7 8 8 9 9 10 9 10 10 11 12 13 14 15 15 15 14 14 14 14 14 15 16 16 17 18 18 18 19 20 20 20 19 18 17 17 17 17 16 16 15 14 13 12 11 11
15 15 14 13 12 13 13 13 14 14 12 12 11 10 10 11 12 13 13 12 13 13 12 11 11 11 10 9 8 8 7 7 6 5 5 6 5 5 5 6 7 8 8 8 8 8 8 8 8 9 10 11 11 12 13 14 13 13 14 14 14 15 15 16 17 17 17 18 19 19 20 20 19 18 18 17 17 17 17 16 16 15 14 13 12 11
13 14 15 14 15 15 15 15 15 14 13 13 12 11 11 11 12 12 12 13 14 13 12 12 12 11 10 9 8 8 8 7 6 5 5 5 4 4 5 4 5 7 7 7 7 7 7 7 7 8 9 9 10 11 12 13 13 13 13 13 13 14 15 15 16 16 17 18 19 19 20 20 20 19 18 18 18 18 18 18 17 17 16 15 13 13
12 13 15 14 14 15 15 14 14 13 13 13 13 12 11 11 11 10 11 13 13 12 12 13 12 11 10 9 9 9 8 7 6 6 6 5 4 4 4 4 4 5 5 6 6 6 6 6 7 7 8 8 9 9 9 11 12 12 12 12 12 13 13 14 15 15 15 17 18 19 20 20 20 20 20 19 18 18 19 19 18 18 18 17 15 14
12 13 14 14 13 14 13 13 12 12 12 13 12 12 12 11 11 10 11 12 12 12 13 13 12 11 10 9 8 8 7 7 7 6 6 5 5 4 4 3 3 3 4 4 5 5 6 7 7 7 7 7 7 7 7 9 10 10 10 11 12 12 12 13 14 14 14 15 16 17 19 20 20 21 21 20 19 19 19 19 20 20 20 19 17 16
12 12 14 14 13 13 13 13 12 11 12 12 12 12 12 12 11 11 11 11 10 11 12 11 11 11 11 10 8 7 7 7 6 6 5 5 4 4 4 3 3 3 3 4 5 5 6 6 6 6 5 5 6 6 6 7 8 8 8 9 10 11 12 13 13 13 14 14 15 16 17 18 19 20 21 21 20 20 20 20 20 20 20 20 19 18
11 12 13 13 12 13 13 13 12 12 12 11 11 11 12 12 12 12 12 12 11 10 10 10 11 12 12 11 9 8 8 6 6 5 5 5 5 5 4 3 3 2 2 3 4 5 5 5 5 5 5 5 5 5 5 5 6 6 6 7 8 10 11 11 11 11 12 12 12 14 14 15 16 17 18 19 18 18 18 20 20 20 19 18 18 17
10 11 13 12 12 13 13 13 13 13 12 11 11 11 12 13 13 13 13 14 14 13 11 11 13 14 13 12 10 9 8 6 5 5 5 5 6 5 5 4 4 3 3 4 4 4 5 5 4 4 4 4 4 4 4 4 4 4 4 6 7 8 8 8 8 9 9 9 10 12 12 13 14 14 15 16 15 15 15 16 17 18 17 16 16 16
9 10 11 12 12 13 13 13 14 13 13 14 13 13 14 15 14 14 14 14 15 15 14 13 13 13 13 12 11 10 8 7 6 6 6 6 5 5 5 5 5 4 5 5 5 5 5 5 4 4 4 4 3 3 4 4 3 3 4 5 6 6 6 6 6 6 6 7 8 10 10 11 12 12 12 13 13 13 12 12 12 14 14 14 15 15
7 8 8 9 10 12 13 13 13 13 14 15 15 14 14 14 13 13 13 14 14 14 14 13 12 12 12 12 12 11 10 8 8 7 7 7 6 5 5 5 5 5 5 5 5 5 5 4 4 4 3 3 4 4 4 4 4 5 5 5 5 5 5 5 5 5 5 5 6 7 8 9 10 10 11 11 11 11 11 10 11 12 12 13 14 15
8 7 7 7 8 9 11 11 11 12 14 14 15 14 14 13 13 12 12 12 13 13 13 13 13 14 13 12 12 11 10 9 8 7 8 8 8 7 7 6 6 6 5 5 5 5 4 4 4 4 3 4 4 5 5 5 5 6 6 6 5 5 5 5 4 4 5 5 5 5 6 8 9 9 10 10 10 10 10 10 11 12 13 13 14 14
9 8 7 7 7 7 7 7 8 10 11 12 13 13 13 13 13 13 12 11 12 13 13 13 13 14 14 14 13 12 11 10 8 8 9 9 8 8 8 8 8 7 7 6 6 5 5 4 5 4 4 4 5 5 5 5 6 6 6 6 6 5 5 5 4 4 4 4 5 5 6 7 7 8 9 10 10 10 11 11 12 13 14 15 15 16
9 9 8 7 7 7 7 6 7 7 8 10 10 10 11 12 12 13 13 12 12 13 13 13 13 14 14 15 14 14 13 11 9 10 10 9 9 9 9 9 9 8 8 7 6 6 6 6 5 5 5 4 5 5 5 5 6 6 6 6 6 6 5 5 4 4 4 4 5 5 6 6 7 7 8 8 9 10 11 12 12 13 14 15 16 17
9 9 10 9 8 8 7 6 7 7 8 8 9 9 10 10 11 12 12 11 11 12 13 13 12 13 15 16 17 17 15 13 13 13 12 10 10 10 10 9 9 9 8 7 6 6 7 7 6 5 5 4 4 5 6 6 6 6 6 6 6 6 6 5 5 5 5 5 5 6 6 6 6 7 7 8 8 9 10 11 12 14 15 16 17 18
7 8 9 9 9 8 8 7 7 7 7 8 9 10 9 10 10 10 9 9 11 12 13 13 12 13 14 15 15 16 14 14 14 14 13 11 11 10 10 9 8 8 7 7 7 6 6 7 7 6 5 4 4 5 5 6 6 6 6 6 6 6 6 6 6 6 6 6 7 7 7 7 8 8 8 9 9 10 10 11 12 13 14 15 17 18
8 9 9 9 10 9 9 8 8 7 7 8 10 11 10 10 10 9 9 10 11 12 12 12 12 13 12 11 11 12 12 12 13 13 12 11 10 9 9 8 8 7 7 6 6 6 7 7 8 7 6 4 4 5 6 6 7 7 7 7 7 7 7 7 7 7 7 7 8 8 9 10 10 10 11 11 12 12 13 13 14 14 15 16 17 17
9 9 9 9 10 10 9 9 9 9 9 9 9 11 11 11 10 9 9 10 11 12 12 12 12 12 11 11 11 11 10 11 12 12 12 11 10 9 8 8 8 8 8 7 7 7 7 7 8 7 6 6 5 6 6 7 7 7 8 8 8 8 8 8 9 9 9 10 10 11 11 12 12 13 13 14 15 15 15 16 16 16 17 17 18 18
9 9 9 9 9 10 10 10 10 10 10 9 10 11 11 10 10 10 10 10 11 13 13 12 12 12 11 11 11 11 11 12 13 13 12 11 10 9 9 9 9 8 8 8 8 8 7 7 8 8 7 7 7 7 7 7 7 8 8 9 9 9 10 10 11 11 12 12 12 13 14 14 15 16 16 17 18 18 18 18 18 19 19 19 19 20
8 9 9 9 10 10 10 10 11 12 11 10 11 11 10 9 10 10 10 10 12 13 13 13 13 12 11 11 12 12 12 12 13 14 13 12 12 11 10 10 9 9 8 8 9 8 8 8 9 9 9 9 9 9 8 8 8 9 9 10 11 12 12 12 13 14 14 14 15 15 16 16 17 18 19 19 20 20 20 21 21 22 22 22 22 22
6 8 9 10 10 10 9 9 10 12 12 12 11 12 11 10 10 9 9 10 12 13 13 13 13 12 12 13 12 12 12 13 13 14 13 13 13 12 12 11 11 10 10 10 10 10 10 10 10 11 11 11 12 12 12 12 11 12 12 13 14 15 16 16 16 17 17 17 18 18 19 19 20 20 21 22 22 23 23 23 24 24 24 25 25 25
6 6 7 8 8 8 8 8 8 9 10 10 10 11 11 10 10 9 9 10 11 12 13 13 13 13 13 13 12 12 13 13 13 13 13 13 13 12 12 12 12 12 12 12 12 12 12 11 11 12 12 13 13 14 14 14 14 14 15 16 16 17 18 18 18 19 19 19 20 21 21 22 22 23 24 24 25 25 25 26 26 26 26 27 27 27
6 6 6 7 7 7 7 7 7 7 7 6 7 8 8 9 9 9 9 9 10 11 12 13 12 13 13 13 13 13 13 13 13 12 12 12 12 12 12 12 12 13 13 13 13 13 13 13 13 13 13 13 13 14 14 14 14 15 15 16 17 17 17 18 18 19 20 20 21 22 22 23 23 24 25 25 26 26 27 27 27 27 28 28 28 29
5 5 6 7 8 8 7 7 7 7 6 5 5 5 6 7 8 9 9 9 10 10 11 12 12 13 13 13 13 13 14 14 13 12 12 12 12 12 12 12 13 13 13 13 14 14 14 14 14 14 14 14 14 14 14 14 15 15 16 16 17 17 18 18 19 20 20 21 22 23 23 24 24 25 25 25 26 26 27 27 28 28 29 29 29 30
6 6 6 7 7 8 8 8 8 6 6 6 6 6 6 6 7 7 8 9 9 10 11 11 12 12 13 13 13 13 14 13 13 13 13 13 13 13 13 13 13 13 14 14 14 14 15 15 15 15 15 15 15 15 15 16 16 16 17 17 18 19 19 20 21 21 22 23 24 24 25 25 26 26 26 27 27 27 28 28 29 29 30 30 31 31
7 6 7 7 7 7 8 9 9 7 7 7 7 7 8 7 7 7 8 8 9 9 10 10 11 12 13 13 13 13 13 13 13 13 13 14 14 14 15 14 15 15 15 15 15 15 15 15 15 15 16 16 16 16 16 17 17 18 18 19 19 20 20 21 22 22 23 24 25 25 26 26 27 27 27 28 28 28 29 29 30 30 31 32 32 33
5 6 6 6 7 8 10 11 11 10 10 10 9 9 10 10 9 9 9 9 9 9 10 10 11 11 12 14 15 15 14 15 15 14 15 15 16 16 16 16 16 16 16 16 16 16 16 16 16 16 17 17 18 18 18 18 18 19 19 20 20 21 21 22 23 23 24 25 25 26 26 27 27 27 28 28 28 29 29 30 30 31 32 32 33 34
5 6 7 7 7 9 11 11 10 10 10 11 11 11 11 11 11 11 11 12 12 12 12 12 12 13 13 15 16 16 15 16 16 16 16 17 18 18 18 18 17 17 18 18 18 17 17 17 17 17 18 19 19 19 19 20 20 21 21 22 22 22 23 23 24 24 25 25 26 27 27 27 27 27 28 28 29 29 29 30 30 31 31 32 33 34
Wind_Direction
233 236 240 238 237 237 239 239 240 244 248 251 254 256 256 256 255 245 241 244 241 247 251 246 247 249 247 245 241 234 231 231 231 230 229 228 228 229 226 226 227 226 227 227 224 225 228 229 230 231 232 236 238 240 242 240 238 234 231 229 226 225 226 225 222 220 219 218 217 216 216 216 216 216 216 217 219 219 218 220 222 224 225 227 226 224
234 236 239 237 234 235 238 239 241 247 253 255 255 259 260 254 253 249 243 243 241 245 249 247 249 250 247 247 244 236 234 233 229 229 229 227 228 229 224 224 225 224 224 225 225 225 227 229 231 233 235 237 239 240 241 240 236 233 230 228 226 224 224 223 221 219 219 218 216 215 215 213 212 213 217 219 218 216 216 216 215 217 219 220 219 216
239 239 239 235 233 235 241 243 244 248 252 254 253 256 258 254 255 254 247 244 244 245 249 251 252 251 250 250 246 239 235 234 229 227 227 224 225 226 222 221 221 220 221 223 225 225 226 228 230 234 236 238 239 240 241 240 236 233 231 229 227 224 221 220 219 217 217 216 215 215 213 210 210 213 216 217 215 212 211 210 208 212 217 219 218 215
238 241 238 233 232 235 243 245 244 250 254 252 249 251 254 253 252 252 248 247 248 248 249 253 255 252 253 253 250 246 242 241 235 230 227 223 221 221 218 218 217 216 217 220 223 224 224 226 229 233 236 237 237 238 239 239 236 233 231 229 225 222 219 217 216 213 212 211 211 212 210 208 208 209 212 214 212 209 207 206 207 213 218 219 219 217
236 238 234 231 232 234 241 245 242 246 253 252 247 245 249 250 245 243 246 251 255 254 246 248 256 254 252 254 257 256 249 243 236 229 226 222 220 219 219 219 219 218 217 218 220 221 223 226 229 232 235 235 235 236 238 238 236 232 230 228 223 219 214 212 212 210 208 207 207 206 205 205 206 207 209 209 207 207 207 206 209 214 217 217 217 217
238 236 230 228 232 233 237 243 241 239 249 255 248 241 242 243 242 241 243 250 256 255 247 247 253 252 254 257 262 262 249 238 231 223 219 218 218 218 218 219 219 220 219 218 219 220 223 226 229 232 235 234 234 236 239 239 235 230 228 225 220 216 213 211 212 211 209 206 205 205 204 205 206 206 207 206 206 207 206 207 212 214 212 212 213 215
239 233 228 228 230 232 236 243 241 234 242 254 249 239 236 237 239 239 237 240 245 246 247 247 243 247 257 261 264 260 241 233 229 222 218 216 216 216 217 217 217 217 218 218 218 220 223 226 228 232 233 233 235 238 239 239 234 229 226 223 219 216 214 214 214 213 211 207 206 206 206 208 207 206 207 206 205 204 204 208 210 208 206 206 209 214
234 229 229 228 228 230 235 240 236 228 235 249 246 232 227 230 233 233 232 235 242 247 250 247 237 242 252 255 258 250 229 227 228 222 220 217 216 216 217 217 217 217 218 217 217 219 221 224 227 229 231 233 235 237 238 237 233 229 225 222 219 217 216 215 214 213 211 208 207 207 208 209 208 207 207 204 201 201 204 206 205 203 203 204 207 214
230 226 226 224 226 230 229 228 225 223 236 245 239 227 223 224 227 229 231 235 244 249 249 246 237 237 246 249 250 240 224 226 227 223 222 219 217 217 217 217 217 217 216 216 217 219 220 222 225 227 229 231 234 237 237 235 232 228 225 222 220 217 216 214 213 212 211 208 207 208 208 207 207 207 206 202 200 203 205 204 202 202 203 206 210 216
233 230 224 220 225 227 224 223 219 218 233 240 232 229 231 230 231 232 233 235 241 243 240 241 237 235 245 246 237 230 226 226 226 224 222 221 219 217 215 215 216 215 213 214 217 218 219 221 223 225 227 229 233 236 235 232 229 225 224 221 218 216 214 212 212 212 210 208 207 207 207 205 204 204 203 202 202 204 205 204 204 205 206 211 218 222
239 235 227 224 223 220 220 225 221 217 228 239 237 236 237 242 242 240 240 235 235 240 238 238 236 233 241 241 226 222 224 223 224 225 221 220 219 216 215 215 214 213 211 213 216 217 218 220 220 221 223 227 233 234 231 227 225 222 221 219 216 214 212 210 210 210 210 208 207 207 206 204 202 202 202 202 202 204 204 204 206 208 210 215 223 227
241 236 232 229 223 217 220 229 231 228 232 241 244 237 236 243 242 242 245 235 232 239 237 235 233 226 230 234 228 228 230 225 222 222 221 220 219 217 216 215 213 212 213 215 215 216 217 217 217 219 221 226 230 230 226 222 221 219 218 216 215 213 210 209 210 209 208 207 205 206 206 204 203 201 202 203 204 204 204 206 208 211 213 217 223 228
240 234 233 231 225 218 219 232 241 240 234 234 235 227 226 236 236 238 241 234 234 238 234 231 229 226 229 229 229 235 238 234 228 223 223 225 223 221 219 217 215 213 214 214 211 210 211 213 216 219 223 226 227 225 221 218 219 218 216 215 214 212 210 209 209 208 206 204 203 205 205 204 204 203 203 204 205 205 206 209 212 213 214 219 225 229
240 240 233 228 227 219 215 224 234 236 229 224 225 219 217 224 228 237 241 239 242 240 232 229 226 229 233 228 227 234 238 241 238 228 225 227 227 227 225 221 216 214 216 216 211 208 208 213 217 221 226 228 226 223 219 218 219 217 217 215 214 212 210 208 208 208 206 203 203 205 205 204 203 203 204 206 208 209 211 213 214 215 217 222 228 233
231 238 229 220 223 218 214 220 223 226 227 226 228 223 220 220 221 231 235 234 240 238 230 227 223 223 226 224 225 229 234 241 237 225 224 226 226 229 231 227 221 218 218 216 211 209 212 219 222 222 226 228 224 221 219 220 221 219 218 215 213 211 209 208 207 206 204 202 203 204 203 203 203 203 205 208 210 213 215 215 215 217 222 228 234 239
227 233 228 220 218 212 214 223 220 221 229 232 229 224 226 224 221 229 230 226 231 232 228 226 224 223 224 227 228 226 230 237 230 218 217 220 224 228 229 229 225 218 213 209 207 210 216 222 224 224 226 225 221 220 221 222 222 220 217 215 213 211 209 207 205 203 201 200 201 202 202 203 204 205 207 209 210 212 213 214 216 220 226 234 239 244
227 232 231 227 223 216 218 224 222 221 226 228 224 223 227 224 216 222 231 232 228 227 229 228 228 231 230 231 231 226 226 231 227 218 216 218 223 228 229 232 231 218 206 204 206 212 220 225 224 222 223 222 220 220 221 223 222 220 218 215 213 211 207 204 200 198 197 198 199 200 201 204 205 207 211 213 212 213 214 216 220 225 231 237 242 245
225 231 233 225 224 227 224 222 227 228 222 221 223 223 223 223 221 221 228 237 231 227 234 233 231 232 229 229 233 230 229 232 229 222 223 227 229 233 234 234 228 210 201 204 208 214 225 226 221 218 221 222 219 220 220 220 220 220 219 216 211 207 202 199 196 194 195 197 199 201 202 205 207 209 213 214 215 217 218 220 224 228 233 237 242 247
227 233 239 227 222 231 229 221 229 236 228 223 223 222 220 222 227 225 224 231 229 230 239 241 235 231 226 227 235 236 234 237 237 231 229 232 234 238 237 226 209 198 200 210 216 223 228 223 218 218 220 219 216 219 220 220 220 218 217 215 209 204 201 199 197 196 198 199 201 203 204 205 208 209 211 213 216 219 221 223 225 229 233 237 246 251
227 229 237 231 224 229 231 225 228 231 229 226 223 225 227 224 223 222 222 225 224 226 236 241 240 235 229 230 238 242 240 238 238 238 236 233 233 236 233 217 202 197 203 214 220 227 227 222 220 220 221 218 213 215 219 221 223 220 217 216 211 207 205 202 200 201 203 203 203 204 204 205 207 208 211 214 218 222 224 225 227 231 234 239 246 249
227 226 230 233 230 228 227 226 224 222 221 221 222 224 226 225 223 224 227 227 223 223 227 231 237 238 233 233 239 244 244 242 240 242 242 236 232 236 231 213 201 201 210 220 225 226 223 221 222 222 223 220 215 215 217 221 225 226 226 227 219 212 209 204 203 205 207 206 206 205 205 206 207 208 213 217 219 222 223 224 226 231 235 238 243 244
223 223 225 231 233 228 228 227 223 221 220 219 220 221 221 221 220 222 230 232 227 225 225 223 233 241 237 234 238 240 242 246 247 244 241 235 231 232 226 212 208 213 219 224 225 222 219 221 224 225 225 223 219 218 219 223 228 230 233 233 225 217 213 209 207 208 209 210 209 207 206 207 208 211 216 218 218 220 221 221 225 230 235 238 242 242
218 219 223 229 230 228 231 230 223 221 221 221 224 223 221 222 219 218 227 230 226 229 231 227 234 242 240 236 236 236 236 242 249 243 233 231 231 228 219 213 218 225 226 226 226 224 223 224 226 227 226 224 221 219 222 227 230 231 232 229 224 220 217 214 213 212 213 214 212 209 209 211 213 217 220 220 220 221 221 223 226 232 236 237 241 242
219 221 223 230 234 232 232 230 223 219 218 221 229 228 225 226 223 220 224 225 222 224 228 231 239 243 242 238 233 232 232 233 240 236 225 230 240 234 222 218 222 228 228 225 224 225 224 225 228 230 228 225 222 222 225 228 229 230 227 223 221 220 218 218 216 216 217 218 216 214 215 217 218 221 223 222 221 221 223 225 227 233 236 236 238 242
225 225 221 223 231 232 231 231 228 225 221 220 226 233 232 228 223 224 227 227 225 225 222 225 237 241 240 236 229 226 226 225 228 227 225 233 240 231 221 220 223 227 224 218 219 223 223 225 227 225 224 225 224 224 227 229 230 229 223 219 220 220 219 219 217 217 220 220 218 218 219 220 221 224 225 223 222 223 225 227 229 232 235 236 238 242
225 226 221 217 219 222 225 228 227 227 227 225 226 234 237 231 225 224 225 225 227 229 227 226 232 235 234 231 226 221 220 219 220 221 227 236 236 226 225 228 227 226 219 212 213 219 224 225 220 214 218 224 223 222 226 229 230 227 222 221 223 221 219 218 217 218 222 222 221 221 221 222 224 226 227 225 223 225 226 227 229 231 233 237 240 242
222 226 224 219 219 222 224 228 228 225 225 227 230 236 239 237 233 226 224 227 227 226 231 234 231 226 224 225 225 222 219 220 225 230 234 237 233 228 233 233 225 222 216 210 211 219 222 220 215 213 216 222 222 220 222 225 224 222 221 224 225 222 219 217 216 220 224 223 223 223 223 224 226 228 228 227 226 226 228 229 231 232 234 238 242 244
221 226 226 221 224 229 230 232 231 224 221 225 229 234 239 242 238 227 224 228 224 221 231 235 227 219 221 225 226 224 221 221 228 235 238 237 230 224 227 225 215 214 211 210 216 221 218 215 217 218 217 216 216 216 216 218 219 218 221 226 229 226 223 221 220 222 225 223 223 225 226 227 228 228 228 228 227 227 229 231 234 235 235 235 240 245
220 225 227 224 227 232 233 233 230 222 220 224 228 233 239 243 238 229 229 231 226 225 229 226 218 218 227 234 235 231 224 220 224 230 235 238 235 224 218 213 211 212 210 212 220 219 212 212 215 217 218 215 211 210 213 217 220 222 225 229 231 228 224 222 221 223 225 225 225 227 227 227 228 228 227 227 228 229 232 236 238 239 238 238 241 244
224 228 228 225 227 233 235 234 231 226 225 228 232 236 239 240 236 230 231 233 230 228 229 222 216 223 233 237 237 233 222 215 218 228 233 233 227 215 207 206 208 214 219 222 227 222 212 207 206 209 216 218 215 219 224 226 226 226 226 228 229 227 223 221 220 223 226 226 227 229 229 229 228 226 226 229 231 234 237 239 240 242 242 241 239 238
229 229 230 227 227 232 236 234 233 229 225 227 235 241 242 241 238 235 233 233 233 231 229 224 221 226 234 237 236 234 226 217 220 234 237 230 218 206 203 207 201 202 220 224 222 217 208 201 198 199 207 217 222 223 226 229 228 222 218 219 221 222 223 223 223 224 226 226 226 227 228 228 227 225 227 229 231 236 240 240 240 240 240 238 236 235
233 230 232 228 224 228 231 232 234 233 227 229 237 244 246 242 237 237 237 238 237 230 221 221 224 227 231 232 232 235 233 226 227 235 236 231 225 215 211 215 213 216 235 236 225 214 204 199 197 194 196 204 209 206 207 210 211 210 207 206 209 213 216 220 220 220 222 223 222 223 224 225 224 223 224 226 229 236 241 240 237 235 234 234 235 234
230 227 229 227 224 226 230 232 234 234 233 236 240 242 243 239 235 236 239 242 242 235 228 229 229 226 226 226 226 232 234 231 233 235 230 227 226 219 211 211 216 226 239 243 233 220 212 208 204 201 194 189 191 194 195 189 183 191 195 191 192 196 198 202 205 209 215 217 217 220 222 221 219 218 221 224 229 233 235 233 229 226 227 230 232 232
225 221 225 227 224 226 232 235 235 233 233 236 241 241 239 235 232 233 237 242 241 233 231 234 232 228 229 228 226 227 227 227 231 233 229 227 229 226 218 213 219 225 230 234 229 219 214 209 206 206 199 188 188 189 184 176 172 179 186 183 180 181 183 188 192 195 203 208 211 216 217 217 217 218 219 221 224 228 230 229 226 224 226 230 232 234
221 220 223 227 224 223 229 232 233 235 235 236 238 239 237 233 229 227 234 242 238 227 224 229 232 231 230 226 221 219 217 218 224 229 229 230 230 227 224 223 226 226 225 228 226 218 209 200 196 196 191 186 188 187 184 182 178 178 181 184 185 186 186 188 192 194 196 198 203 209 213 216 219 222 222 222 226 230 234 235 233 231 232 234 237 240
219 220 222 224 222 216 217 222 225 231 233 231 233 236 235 235 234 231 233 238 238 233 227 226 228 227 224 221 218 214 212 216 224 230 230 228 228 228 227 226 227 227 226 226 227 222 209 193 186 188 190 190 188 185 184 185 182 179 179 184 191 196 197 196 199 202 199 196 199 205 210 214 218 221 224 227 233 237 240 241 240 239 239 241 243 247
223 221 221 222 222 217 214 217 220 224 228 226 229 232 230 231 234 233 232 233 234 233 226 220 220 222 220 219 217 215 216 220 229 236 234 229 229 231 230 229 228 225 220 219 227 229 218 205 196 193 194 194 190 190 195 196 190 185 185 190 196 201 205 206 207 208 208 208 209 210 210 212 216 220 225 230 236 241 246 247 247 247 247 247 249 250
233 231 226 225 229 225 216 217 225 232 235 230 229 232 231 232 233 231 231 233 231 227 221 214 215 218 217 217 219 222 226 229 232 236 236 231 228 228 227 227 226 223 217 217 225 228 220 212 208 202 199 198 202 207 209 207 200 193 196 203 207 207 209 213 214 212 211 214 218 219 218 219 222 227 232 237 240 244 249 252 253 252 251 251 252 254
236 240 234 230 232 226 217 220 229 232 232 230 234 240 241 240 235 229 231 233 224 216 213 210 212 214 213 215 220 226 228 227 228 231 230 226 224 222 220 218 217 216 216 217 218 216 213 210 206 203 202 207 219 223 219 213 207 202 208 215 215 213 215 220 224 222 219 220 224 227 230 233 237 239 243 247 251 253 256 257 257 256 255 255 256 257
235 240 240 235 234 231 228 231 235 234 231 229 235 245 250 244 234 228 234 234 217 206 205 206 205 205 205 209 217 222 223 221 219 219 216 211 207 206 203 200 200 205 209 213 214 213 213 212 206 203 206 213 224 230 229 224 215 211 217 223 220 218 220 224 229 232 233 237 240 242 245 247 248 251 254 259 261 262 262 262 261 261 261 260 260 260
232 234 233 229 231 236 236 235 239 241 236 233 242 251 252 243 231 227 233 229 211 201 202 202 200 201 204 209 213 215 213 208 200 196 196 193 191 191 193 193 195 199 203 208 211 209 209 208 204 203 209 215 220 225 228 226 219 214 220 225 224 224 227 231 237 242 246 251 253 255 257 258 259 261 264 266 266 266 267 267 266 265 264 263 262 262
237 236 236 234 235 239 238 237 240 242 238 243 255 254 243 232 228 230 231 221 204 200 202 202 202 205 208 209 205 200 197 195 192 193 194 194 193 194 194 193 193 195 198 202 206 205 207 210 210 211 216 220 224 228 230 230 228 228 231 233 233 235 239 242 246 250 253 256 258 259 262 264 266 268 269 270 270 270 270 270 269 268 267 265 264 263
242 238 238 241 240 240 242 241 240 242 246 256 259 247 233 229 230 229 224 211 202 201 203 203 205 207 205 199 194 193 193 194 197 202 205 207 208 208 207 206 206 206 208 210 213 216 218 221 223 227 232 236 240 243 244 242 241 240 241 242 244 246 250 253 256 257 259 260 262 264 265 267 269 271 271 272 272 271 271 271 271 270 269 268 266 265
249 239 236 243 244 241 242 242 242 246 252 256 250 239 234 236 234 225 216 210 207 206 205 206 207 207 202 196 194 197 201 201 202 206 209 213 216 218 220 224 227 229 231 232 234 237 238 236 235 238 243 247 249 251 252 253 252 250 249 250 252 255 258 261 262 263 264 265 266 267 269 270 271 272 272 273 273 273 273 273 272 271 270 269 268 267
246 237 231 239 242 235 232 235 239 245 250 249 243 237 236 235 231 221 211 209 212 211 208 207 205 204 202 198 197 201 204 204 206 210 213 218 223 226 230 235 240 242 244 245 245 247 248 248 246 247 249 252 254 255 256 257 257 257 257 257 258 260 262 263 265 266 267 268 269 270 271 271 272 273 274 274 274 274 274 273 272 271 270 269 269 268
239 238 234 236 237 233 231 235 239 245 249 246 239 233 230 227 226 220 212 212 215 212 208 206 205 204 203 200 200 202 204 205 208 213 218 223 229 233 237 240 244 247 248 249 250 251 251 251 251 252 254 257 260 260 260 260 260 260 260 260 261 262 263 264 266 268 269 271 272 273 274 274 274 275 275 275 275 274 274 273 273 272 271 271 270 270
244 239 239 242 242 239 237 240 242 242 243 235 221 213 215 217 219 219 216 216 215 208 204 204 205 204 203 202 203 205 207 210 213 217 223 228 232 236 240 243 247 249 251 252 253 253 253 253 255 256 258 261 263 264 265 264 264 263 263 263 264 265 266 268 269 271 272 273 274 275 276 276 276 276 276 276 275 274 273 273 273 272 272 272 272 272
248 244 244 247 246 240 236 237 235 229 226 221 209 203 205 205 206 208 209 209 207 205 204 205 205 205 205 206 207 208 211 217 220 224 230 234 236 239 242 245 248 251 253 254 254 254 254 254 255 257 259 261 263 265 266 266 266 266 266 267 268 269 270 271 273 273 274 275 276 276 277 277 277 277 277 276 276 275 274 274 273 273 273 273 273 273
254 253 251 249 246 242 238 234 229 225 228 227 215 206 205 200 193 192 194 194 195 199 203 205 206 206 207 210 212 214 217 223 226 229 234 239 242 244 246 248 250 252 253 254 254 253 253 253 255 257 258 260 261 263 264 265 266 267 268 269 271 272 273 274 275 275 276 276 276 277 277 277 277 277 277 277 277 276 276 276 276 275 274 274 274 274
256 249 250 247 244 243 240 234 231 231 232 229 218 211 210 208 202 199 198 196 196 199 202 204 207 210 214 219 222 224 226 230 234 236 240 243 246 248 250 251 253 253 254 254 254 253 252 254 256 258 260 261 262 263 264 266 267 268 270 271 272 274 275 276 276 277 277 277 278 278 277 277 277 277 278 278 278 278 278 277 277 277 276 276 275 275
252 244 248 245 242 243 239 232 230 229 227 226 222 217 218 219 216 212 211 210 209 210 211 212 214 217 223 230 233 234 236 238 241 244 248 250 252 253 254 255 255 255 256 256 255 253 254 258 260 262 264 266 266 266 267 268 270 271 272 274 274 275 277 278 278 279 279 279 279 279 278 278 278 278 278 278 279 279 279 278 278 278 278 278 278 278